| time (UTC) | temp F | wind direction | speed MPH | gust MPH | rain 1hr in | rain 24hr in | rain mn in | humidity % | barometer mb |
| 20260831223632 | 81 | 80 | 0.0 | 0.0 | 0.00 | 0.43 | 0.00 | 97 | 1017.5 |
| 20260831223059 | 81 | 80 | 0.0 | 0.0 | 0.00 | 0.43 | 0.00 | 96 | 1017.5 |
| 20260831222524 | 81 | 80 | 0.0 | 0.0 | 0.00 | 0.43 | 0.00 | 96 | 1017.5 |
| 20260831221950 | 81 | 80 | 0.0 | 0.0 | 0.00 | 0.43 | 0.00 | 95 | 1017.7 |
| 20260831221416 | 81 | 80 | 0.0 | 0.0 | 0.00 | 0.43 | 0.00 | 95 | 1017.7 |
| 20260831220842 | 81 | 80 | 0.0 | 0.0 | 0.00 | 0.43 | 0.00 | 95 | 1017.8 |
| 20260831215738 | 81 | 81 | 0.0 | 0.0 | 0.00 | 0.43 | 0.00 | 95 | 1017.8 |
| 20260831215204 | 81 | 80 | 0.0 | 0.0 | 0.00 | 0.43 | 0.00 | 94 | 1017.7 |
| 20260831213530 | 81 | 80 | 0.0 | 0.0 | 0.00 | 0.43 | 0.00 | 94 | 1017.7 |
| 20260831212956 | 81 | 80 | 0.0 | 0.0 | 0.00 | 0.43 | 0.00 | 94 | 1017.7 |
| 20260831212422 | 81 | 73 | 0.0 | 0.0 | 0.00 | 0.43 | 0.00 | 94 | 1017.7 |
| 20260831211848 | 81 | 73 | 0.0 | 0.0 | 0.00 | 0.43 | 0.00 | 94 | 1017.8 |
| 20260831210744 | 82 | 73 | 0.0 | 0.0 | 0.00 | 0.43 | 0.00 | 93 | 1017.8 |
| 20260831205640 | 82 | 73 | 0.0 | 0.0 | 0.00 | 0.43 | 0.00 | 92 | 1017.7 |
| 20260831205106 | 82 | 73 | 0.0 | 0.0 | 0.00 | 0.43 | 0.00 | 93 | 1017.7 |
| 20260831204532 | 82 | 73 | 0.0 | 0.0 | 0.00 | 0.43 | 0.00 | 92 | 1017.6 |
| 20260831203428 | 82 | 73 | 0.0 | 0.0 | 0.00 | 0.43 | 0.00 | 93 | 1017.8 |
| 20260831202854 | 83 | 73 | 0.0 | 0.0 | 0.00 | 0.43 | 0.00 | 92 | 1017.7 |
| 20260831201220 | 83 | 72 | 0.0 | 0.0 | 0.00 | 0.43 | 0.00 | 91 | 1017.7 |
| 20260831200116 | 82 | 91 | 0.0 | 0.0 | 0.00 | 0.43 | 0.00 | 89 | 1017.7 |
| 20260831195011 | 82 | 92 | 0.0 | 0.0 | 0.00 | 0.43 | 0.00 | 90 | 1017.7 |
| 20260831193337 | 83 | 96 | 0.0 | 0.0 | 0.00 | 0.43 | 0.00 | 89 | 1017.8 |
| 20260831192803 | 83 | 96 | 0.0 | 0.0 | 0.00 | 0.43 | 0.00 | 88 | 1017.9 |
| 20260831191659 | 84 | 96 | 0.0 | 0.0 | 0.00 | 0.43 | 0.00 | 87 | 1018.0 |
| 20260831191125 | 84 | 96 | 0.0 | 0.0 | 0.00 | 0.43 | 0.00 | 88 | 1018.1 |
| 20260831190551 | 84 | 96 | 0.0 | 0.0 | 0.00 | 0.43 | 0.00 | 87 | 1018.2 |
| 20260831190017 | 84 | 96 | 0.0 | 0.0 | 0.00 | 0.43 | 0.00 | 86 | 1018.2 |
| 20260831185443 | 84 | 96 | 0.0 | 0.0 | 0.00 | 0.43 | 0.00 | 84 | 1018.2 |
| 20260831184909 | 84 | 87 | 0.0 | 0.0 | 0.00 | 0.43 | 0.00 | 85 | 1018.3 |
| 20260831184335 | 84 | 87 | 0.0 | 0.0 | 0.00 | 0.43 | 0.00 | 86 | 1018.3 |
| 20260831183801 | 84 | 87 | 0.0 | 0.0 | 0.00 | 0.43 | 0.00 | 86 | 1018.3 |
| 20260831182657 | 84 | 87 | 0.0 | 0.0 | 0.00 | 0.43 | 0.00 | 86 | 1018.3 |
| 20260831181023 | 85 | 87 | 0.0 | 0.0 | 0.00 | 0.43 | 0.00 | 85 | 1018.2 |
| 20260831175918 | 85 | 122 | 0.0 | 0.0 | 0.00 | 0.43 | 0.00 | 86 | 1018.2 |
| 20260831175344 | 84 | 103 | 0.0 | 0.0 | 0.00 | 0.43 | 0.00 | 85 | 1018.4 |
| 20260831174240 | 84 | 110 | 0.0 | 0.0 | 0.00 | 0.43 | 0.00 | 88 | 1018.5 |
| 20260831172606 | 83 | 213 | 0.0 | 0.0 | 0.00 | 0.43 | 0.00 | 89 | 1018.7 |
| 20260831172032 | 82 | 213 | 0.0 | 0.0 | 0.00 | 0.43 | 0.00 | 88 | 1018.7 |
| 20260831171458 | 82 | 235 | 0.0 | 0.0 | 0.00 | 0.43 | 0.00 | 89 | 1018.7 |
| 20260831170924 | 82 | 235 | 0.0 | 0.0 | 0.00 | 0.43 | 0.00 | 91 | 1018.7 |
| 20260831170350 | 82 | 228 | 0.0 | 0.0 | 0.00 | 0.43 | 0.00 | 91 | 1018.6 |
| 20260831165816 | 82 | 228 | 0.0 | 0.0 | 0.00 | 0.43 | 0.00 | 91 | 1018.7 |
| 20260831165242 | 82 | 230 | 0.0 | 0.0 | 0.00 | 0.43 | 0.00 | 91 | 1018.8 |
| 20260831164708 | 81 | 108 | 0.0 | 0.0 | 0.00 | 0.43 | 0.00 | 93 | 1018.9 |
| 20260831163034 | 81 | 107 | 0.0 | 0.0 | 0.00 | 0.43 | 0.00 | 95 | 1019.1 |
| 20260831162500 | 81 | 107 | 0.0 | 0.0 | 0.00 | 0.43 | 0.00 | 95 | 1019.2 |
| 20260831161925 | 80 | 108 | 0.0 | 0.0 | 0.00 | 0.43 | 0.00 | 96 | 1019.3 |
| 20260831161351 | 80 | 107 | 0.0 | 0.0 | 0.00 | 0.43 | 0.00 | 96 | 1019.2 |
| 20260831160248 | 81 | 107 | 0.0 | 0.0 | 0.00 | 0.43 | 0.00 | 95 | 1019.4 |
| 20260831155714 | 81 | 107 | 0.0 | 0.0 | 0.00 | 0.43 | 0.00 | 94 | 1019.3 |
| 20260831155139 | 80 | 107 | 0.0 | 0.0 | 0.00 | 0.43 | 0.00 | 94 | 1019.2 |
| 20260831154605 | 80 | 106 | 0.0 | 0.0 | 0.00 | 0.43 | 0.00 | 96 | 1019.0 |
| 20260831154031 | 80 | 89 | 0.0 | 0.0 | 0.00 | 0.43 | 0.00 | 97 | 1019.0 |
| 20260831153457 | 80 | 197 | 0.0 | 0.0 | 0.00 | 0.43 | 0.00 | 96 | 1018.9 |
| 20260831152923 | 79 | 193 | 1.0 | 0.0 | 0.00 | 0.43 | 0.00 | 97 | 1018.8 |
| 20260831152349 | 79 | 78 | 1.0 | 0.0 | 0.00 | 0.43 | 0.00 | 98 | 1018.9 |
| 20260831151815 | 78 | 45 | 1.0 | 0.0 | 0.00 | 0.43 | 0.00 | 99 | 1018.9 |
| 20260831150711 | 77 | 93 | 0.0 | 0.0 | 0.00 | 0.43 | 0.00 | 10 | 1019.0 |
| 20260831145607 | 76 | 124 | 1.0 | 0.0 | 0.00 | 0.43 | 0.00 | 10 | 1019.3 |
| 20260831144503 | 75 | 91 | 0.0 | 0.0 | 0.00 | 0.43 | 0.00 | 10 | 1019.3 |
| 20260831143929 | 75 | 83 | 0.0 | 0.0 | 0.00 | 0.43 | 0.00 | 10 | 1019.3 |
| 20260831142255 | 74 | 108 | 1.0 | 0.0 | 0.00 | 0.43 | 0.00 | 10 | 1018.9 |
| 20260831141721 | 74 | 82 | 0.0 | 0.0 | 0.00 | 0.43 | 0.00 | 10 | 1019.0 |
| 20260831141147 | 74 | 135 | 0.0 | 0.0 | 0.00 | 0.43 | 0.00 | 10 | 1019.0 |
| 20260831140613 | 73 | 73 | 0.0 | 0.0 | 0.00 | 0.43 | 0.00 | 10 | 1019.0 |
| 20260831140039 | 73 | 79 | 0.0 | 0.0 | 0.00 | 0.43 | 0.00 | 10 | 1019.0 |
| 20260831134935 | 72 | 258 | 0.0 | 0.0 | 0.00 | 0.43 | 0.00 | 10 | 1019.1 |
| 20260831134401 | 72 | 79 | 1.0 | 0.0 | 0.00 | 0.43 | 0.00 | 10 | 1019.1 |
| 20260831133827 | 72 | 74 | 0.0 | 0.0 | 0.00 | 0.43 | 0.00 | 10 | 1019.0 |
| 20260831132723 | 72 | 181 | 0.0 | 0.0 | 0.00 | 0.43 | 0.00 | 10 | 1019.1 |
| 20260831132148 | 71 | 116 | 0.0 | 0.0 | 0.00 | 0.43 | 0.00 | 10 | 1019.2 |
| 20260831131614 | 71 | 116 | 1.0 | 0.0 | 0.00 | 0.43 | 0.00 | 10 | 1019.0 |
| 20260831131040 | 71 | 97 | 0.0 | 0.0 | 0.00 | 0.43 | 0.00 | 10 | 1019.0 |
| 20260831130506 | 70 | 77 | 0.0 | 0.0 | 0.00 | 0.43 | 0.00 | 10 | 1019.0 |
| 20260831125932 | 70 | 77 | 0.0 | 0.0 | 0.00 | 0.43 | 0.00 | 10 | 1019.1 |
| 20260831125358 | 70 | 77 | 0.0 | 0.0 | 0.00 | 0.43 | 0.00 | 10 | 1019.2 |
| 20260831124824 | 70 | 77 | 0.0 | 0.0 | 0.00 | 0.43 | 0.00 | 10 | 1019.2 |
| 20260831123150 | 70 | 77 | 0.0 | 0.0 | 0.00 | 0.43 | 0.00 | 10 | 1019.1 |
| 20260831122616 | 70 | 78 | 0.0 | 0.0 | 0.00 | 0.43 | 0.00 | 10 | 1019.2 |
| 20260831121512 | 69 | 79 | 0.0 | 0.0 | 0.00 | 0.43 | 0.00 | 10 | 1018.9 |
| 20260831120938 | 69 | 83 | 0.0 | 0.0 | 0.00 | 0.43 | 0.00 | 10 | 1018.8 |
| 20260831120404 | 69 | 84 | 0.0 | 0.0 | 0.00 | 0.43 | 0.00 | 10 | 1018.9 |
| 20260831115300 | 69 | 83 | 0.0 | 0.0 | 0.00 | 0.43 | 0.00 | 10 | 1018.8 |
| 20260831114726 | 69 | 83 | 0.0 | 0.0 | 0.00 | 0.43 | 0.00 | 10 | 1018.8 |
| 20260831114152 | 69 | 83 | 0.0 | 0.0 | 0.00 | 0.43 | 0.00 | 10 | 1018.7 |
| 20260831113618 | 69 | 83 | 0.0 | 0.0 | 0.00 | 0.43 | 0.00 | 10 | 1018.7 |
| 20260831113044 | 69 | 83 | 0.0 | 0.0 | 0.00 | 0.43 | 0.00 | 10 | 1018.5 |
| 20260831111410 | 69 | 83 | 0.0 | 0.0 | 0.00 | 0.43 | 0.00 | 10 | 1018.3 |
| 20260831110836 | 69 | 83 | 0.0 | 0.0 | 0.00 | 0.43 | 0.00 | 10 | 1018.4 |
| 20260831105731 | 68 | 83 | 0.0 | 0.0 | 0.00 | 0.43 | 0.00 | 10 | 1018.4 |
| 20260831104057 | 68 | 83 | 0.0 | 0.0 | 0.00 | 0.43 | 0.00 | 10 | 1018.2 |
| 20260831103523 | 68 | 83 | 0.0 | 0.0 | 0.00 | 0.43 | 0.00 | 10 | 1018.2 |
| 20260831102949 | 68 | 83 | 0.0 | 0.0 | 0.00 | 0.43 | 0.00 | 10 | 1018.0 |
| 20260831102415 | 68 | 83 | 0.0 | 0.0 | 0.00 | 0.43 | 0.00 | 10 | 1018.1 |
| 20260831101841 | 68 | 83 | 0.0 | 0.0 | 0.00 | 0.43 | 0.00 | 10 | 1018.0 |
| 20260831100737 | 68 | 83 | 0.0 | 0.0 | 0.00 | 0.43 | 0.00 | 10 | 1018.1 |
| 20260831100203 | 68 | 83 | 0.0 | 0.0 | 0.00 | 0.43 | 0.00 | 10 | 1018.1 |
| 20260831095059 | 68 | 83 | 0.0 | 0.0 | 0.00 | 0.43 | 0.00 | 10 | 1018.0 |
| 20260831093425 | 68 | 83 | 0.0 | 0.0 | 0.00 | 0.43 | 0.00 | 10 | 1017.9 |
| 20260831092850 | 68 | 83 | 0.0 | 0.0 | 0.00 | 0.43 | 0.00 | 10 | 1018.0 |
| 20260831091746 | 68 | 83 | 0.0 | 0.0 | 0.00 | 0.43 | 0.00 | 10 | 1017.8 |
| 20260831091212 | 68 | 83 | 0.0 | 0.0 | 0.00 | 0.43 | 0.00 | 10 | 1017.9 |
| 20260831085538 | 69 | 83 | 0.0 | 0.0 | 0.00 | 0.43 | 0.00 | 10 | 1018.1 |
| 20260831085004 | 69 | 83 | 0.0 | 0.0 | 0.00 | 0.43 | 0.00 | 10 | 1017.9 |
| 20260831084430 | 69 | 83 | 0.0 | 0.0 | 0.00 | 0.43 | 0.00 | 10 | 1017.9 |
| 20260831082756 | 69 | 83 | 0.0 | 0.0 | 0.00 | 0.43 | 0.00 | 10 | 1017.9 |
| 20260831082222 | 69 | 83 | 0.0 | 0.0 | 0.00 | 0.43 | 0.00 | 10 | 1017.9 |
| 20260831081648 | 69 | 150 | 0.0 | 0.0 | 0.00 | 0.43 | 0.00 | 10 | 1017.8 |
| 20260831080544 | 69 | 151 | 0.0 | 0.0 | 0.00 | 0.43 | 0.00 | 10 | 1017.7 |
| 20260831080010 | 69 | 150 | 0.0 | 0.0 | 0.00 | 0.43 | 0.00 | 10 | 1017.6 |
| 20260831075436 | 69 | 151 | 0.0 | 0.0 | 0.00 | 0.43 | 0.00 | 10 | 1017.6 |
| 20260831074902 | 69 | 151 | 0.0 | 0.0 | 0.00 | 0.43 | 0.00 | 10 | 1017.5 |
| 20260831074328 | 69 | 151 | 0.0 | 0.0 | 0.00 | 0.43 | 0.00 | 10 | 1017.5 |
| 20260831073754 | 69 | 150 | 0.0 | 0.0 | 0.00 | 0.43 | 0.00 | 10 | 1017.6 |
| 20260831072650 | 69 | 151 | 0.0 | 0.0 | 0.00 | 0.43 | 0.00 | 10 | 1017.6 |
| 20260831072116 | 69 | 150 | 0.0 | 0.0 | 0.00 | 0.43 | 0.00 | 10 | 1017.6 |
| 20260831065911 | 69 | 150 | 0.0 | 0.0 | 0.00 | 0.43 | 0.00 | 10 | 1017.9 |
| 20260831064807 | 69 | 150 | 0.0 | 0.0 | 0.00 | 0.43 | 0.00 | 10 | 1017.9 |
| 20260831064233 | 69 | 150 | 0.0 | 0.0 | 0.00 | 0.43 | 0.00 | 10 | 1017.9 |
| 20260831062029 | 70 | 151 | 0.0 | 0.0 | 0.00 | 0.43 | 0.00 | 10 | 1017.9 |
| 20260831060925 | 70 | 151 | 0.0 | 0.0 | 0.00 | 0.43 | 0.00 | 10 | 1017.9 |
| 20260831060351 | 70 | 152 | 0.0 | 0.0 | 0.00 | 0.43 | 0.00 | 10 | 1018.0 |
| 20260831055817 | 70 | 150 | 0.0 | 0.0 | 0.00 | 0.43 | 0.00 | 10 | 1018.0 |
| 20260831055243 | 70 | 151 | 0.0 | 0.0 | 0.00 | 0.43 | 0.00 | 10 | 1018.0 |
| 20260831054139 | 70 | 150 | 0.0 | 0.0 | 0.00 | 0.43 | 0.00 | 10 | 1018.1 |
| 20260831053605 | 70 | 151 | 0.0 | 0.0 | 0.00 | 0.43 | 0.00 | 10 | 1018.1 |
| 20260831052501 | 70 | 150 | 0.0 | 0.0 | 0.00 | 0.43 | 0.00 | 10 | 1018.1 |
| 20260831051357 | 70 | 152 | 0.0 | 0.0 | 0.00 | 0.43 | 0.00 | 10 | 1018.0 |
| 20260831045723 | 70 | 150 | 0.0 | 0.0 | 0.00 | 0.43 | 0.00 | 10 | 1018.2 |
| 20260831045149 | 70 | 150 | 0.0 | 0.0 | 0.00 | 0.43 | 0.00 | 10 | 1018.3 |
| 20260831043515 | 70 | 151 | 0.0 | 0.0 | 0.00 | 0.43 | 0.00 | 10 | 1018.1 |
| 20260831042940 | 70 | 151 | 0.0 | 0.0 | 0.00 | 0.43 | 0.43 | 10 | 1018.3 |
| 20260831041306 | 70 | 150 | 0.0 | 0.0 | 0.00 | 0.43 | 0.43 | 10 | 1018.3 |
| 20260831040732 | 70 | 149 | 0.0 | 0.0 | 0.00 | 0.43 | 0.43 | 10 | 1018.3 |
| 20260831040158 | 70 | 151 | 0.0 | 0.0 | 0.00 | 0.43 | 0.43 | 10 | 1018.4 |
| 20260831035624 | 70 | 150 | 0.0 | 0.0 | 0.00 | 0.43 | 0.43 | 10 | 1018.5 |
| 20260831034520 | 70 | 150 | 0.0 | 0.0 | 0.00 | 0.43 | 0.43 | 10 | 1018.5 |
| 20260831033946 | 70 | 150 | 0.0 | 0.0 | 0.00 | 0.43 | 0.43 | 10 | 1018.5 |
| 20260831032842 | 70 | 151 | 0.0 | 0.0 | 0.00 | 0.43 | 0.43 | 10 | 1018.3 |
| 20260831032308 | 70 | 152 | 0.0 | 0.0 | 0.00 | 0.43 | 0.43 | 10 | 1018.4 |
| 20260831031734 | 70 | 152 | 0.0 | 0.0 | 0.00 | 0.43 | 0.43 | 10 | 1018.3 |
| 20260831030630 | 70 | 149 | 0.0 | 0.0 | 0.00 | 0.43 | 0.43 | 10 | 1018.5 |
| 20260831030056 | 70 | 151 | 0.0 | 0.0 | 0.00 | 0.43 | 0.43 | 10 | 1018.4 |
| 20260831024952 | 69 | 151 | 0.0 | 0.0 | 0.00 | 0.43 | 0.43 | 10 | 1018.6 |
| 20260831024418 | 69 | 151 | 0.0 | 0.0 | 0.00 | 0.43 | 0.43 | 10 | 1018.7 |
| 20260831023844 | 69 | 152 | 0.0 | 0.0 | 0.00 | 0.43 | 0.43 | 10 | 1018.7 |
| 20260831023310 | 69 | 149 | 0.0 | 0.0 | 0.00 | 0.43 | 0.43 | 10 | 1018.8 |
| 20260831021636 | 69 | 151 | 0.0 | 0.0 | 0.00 | 0.43 | 0.43 | 10 | 1018.9 |
| 20260831021101 | 69 | 150 | 0.0 | 0.0 | 0.00 | 0.43 | 0.43 | 10 | 1018.8 |
| 20260831015427 | 69 | 152 | 0.0 | 0.0 | 0.00 | 0.43 | 0.43 | 10 | 1018.9 |
| 20260831014853 | 69 | 151 | 0.0 | 0.0 | 0.00 | 0.43 | 0.43 | 10 | 1018.9 |
| 20260831014319 | 69 | 152 | 0.0 | 0.0 | 0.00 | 0.43 | 0.43 | 10 | 1018.9 |
| 20260831013745 | 69 | 150 | 0.0 | 0.0 | 0.00 | 0.43 | 0.43 | 10 | 1018.9 |
| 20260831012641 | 69 | 151 | 0.0 | 0.0 | 0.00 | 0.43 | 0.43 | 10 | 1018.8 |
| 20260831012107 | 69 | 150 | 0.0 | 0.0 | 0.00 | 0.43 | 0.43 | 10 | 1019.0 |
| 20260831011533 | 69 | 150 | 0.0 | 0.0 | 0.01 | 0.43 | 0.43 | 10 | 1018.8 |
| 20260831010959 | 69 | 150 | 0.0 | 0.0 | 0.01 | 0.43 | 0.43 | 10 | 1018.7 |
| 20260831010425 | 69 | 150 | 0.0 | 0.0 | 0.02 | 0.43 | 0.43 | 10 | 1018.6 |
| 20260831005851 | 69 | 150 | 0.0 | 0.0 | 0.06 | 0.43 | 0.43 | 10 | 1018.6 |
| 20260831004747 | 69 | 152 | 0.0 | 0.0 | 0.29 | 0.43 | 0.43 | 10 | 1018.4 |
| 20260831003643 | 69 | 150 | 0.0 | 0.0 | 0.43 | 0.43 | 0.43 | 10 | 1018.4 |
| 20260831003108 | 69 | 150 | 0.0 | 0.0 | 0.43 | 0.43 | 0.43 | 10 | 1018.5 |
| 20260831002004 | 70 | 149 | 0.0 | 0.0 | 0.43 | 0.43 | 0.43 | 10 | 1018.4 |
| 20260830235759 | 71 | 359 | 0.0 | 0.0 | 0.36 | 0.36 | 0.36 | 10 | 1019.2 |
| 20260830235226 | 72 | 345 | 1.0 | 0.0 | 0.26 | 0.26 | 0.26 | 10 | 1019.6 |
| 20260830234651 | 74 | 326 | 1.0 | 0.0 | 0.12 | 0.12 | 0.12 | 10 | 1019.9 |
| 20260830234117 | 75 | 281 | 1.0 | 0.0 | 0.02 | 0.02 | 0.02 | 96 | 1019.7 |
| 20260830231913 | 78 | 181 | 1.0 | 0.0 | 0.00 | 0.00 | 0.00 | 93 | 1018.2 |
| 20260830230809 | 79 | 177 | 0.0 | 0.0 | 0.00 | 0.00 | 0.00 | 93 | 1017.9 |
| 20260830230235 | 79 | 177 | 2.0 | 0.0 | 0.00 | 0.00 | 0.00 | 92 | 1018.2 |
| 20260830225701 | 79 | 192 | 0.0 | 0.0 | 0.00 | 0.00 | 0.00 | 92 | 1018.1 |
| 20260830225127 | 80 | 192 | 0.0 | 0.0 | 0.00 | 0.00 | 0.00 | 91 | 1018.1 |
| 20260830224553 | 80 | 192 | 1.0 | 0.0 | 0.00 | 0.00 | 0.00 | 90 | 1018.1 |